Wind_Speed
12 13 14 14 15 16 17 16 15 14 14 14 12 12 13 13 13 14 15 16 17 19 16 15 16 15 15 14 14 12 13 14 15 16 16 18 21 22 23 23 24 24 24 24
12 12 13 15 17 18 16 14 13 13 13 13 13 13 14 14 14 15 16 16 16 16 15 14 14 14 15 15 14 13 14 15 16 18 19 21 22 23 24 24 24 24 24 24
12 13 15 16 16 17 16 14 12 12 12 13 14 16 16 16 16 16 15 15 14 15 16 15 14 15 15 16 15 16 16 17 18 19 21 22 22 23 25 24 25 25 25 25
14 15 14 15 15 15 16 15 14 15 15 15 16 17 16 16 17 16 16 15 14 15 15 15 15 15 16 17 17 18 18 19 19 20 21 23 23 24 25 25 25 25 26 26
14 14 13 14 14 14 16 17 16 16 18 18 18 18 18 19 19 18 16 15 15 16 15 16 16 16 17 18 18 19 19 20 21 22 23 24 24 25 25 25 25 26 27 27
13 13 12 13 13 13 16 18 18 17 18 19 19 19 20 19 20 19 18 17 16 16 16 16 16 17 17 18 19 20 21 21 22 23 24 25 25 26 26 26 26 26 27 27
11 11 12 13 13 15 16 17 17 16 17 18 19 20 20 20 20 19 20 19 17 17 17 17 17 18 19 19 20 21 22 23 24 24 25 25 26 26 26 27 27 27 27 28
10 10 11 12 13 13 14 16 17 16 16 16 18 20 19 19 18 18 20 19 18 18 17 17 18 19 20 21 21 22 23 24 25 25 25 26 26 27 27 27 27 27 27 27
10 10 11 12 12 13 14 15 15 16 15 14 15 16 16 15 16 18 19 19 18 17 17 17 19 20 20 22 23 24 25 26 26 27 27 27 27 27 27 27 27 27 27 27
9 11 12 13 14 14 13 13 14 15 16 16 15 14 13 14 16 18 17 17 18 16 16 18 20 21 22 23 24 26 27 27 28 28 28 28 28 28 28 28 28 28 27 27
10 11 12 13 13 13 13 14 15 15 15 16 17 15 15 14 14 15 14 15 17 17 18 19 21 22 23 24 25 27 28 28 28 28 29 28 28 28 28 28 28 28 27 27
11 12 12 13 13 13 13 13 15 15 14 14 16 15 14 14 14 15 14 15 16 18 20 22 23 24 25 26 27 28 28 29 29 30 30 30 29 29 29 28 28 27 26 26
12 13 13 14 14 14 15 15 15 14 14 15 16 16 15 16 17 16 17 17 19 20 22 23 25 25 26 27 28 29 29 29 29 30 30 30 29 29 29 28 27 27 26 26
13 13 13 13 13 14 16 16 16 16 16 16 16 17 18 18 19 18 20 21 21 22 24 25 25 26 27 28 28 29 29 29 29 29 28 28 28 27 27 27 26 26 25 25
13 13 13 13 14 15 17 17 17 17 17 17 17 18 18 19 20 20 20 21 24 24 25 26 26 27 27 28 28 28 28 28 28 28 27 26 26 26 25 25 24 23 23 22
13 14 14 13 14 15 16 17 17 18 18 17 18 18 18 20 20 21 22 24 25 26 27 27 27 27 27 27 28 28 27 27 27 26 25 25 25 24 23 23 23 22 21 20
13 13 13 14 15 15 16 16 17 17 17 18 18 19 21 22 21 22 24 25 26 26 27 27 27 27 27 27 27 26 25 25 24 24 23 23 22 22 22 21 21 20 19 18
11 12 13 14 14 15 15 16 16 16 17 17 19 20 21 21 22 23 25 26 27 27 27 27 27 27 26 26 25 24 23 23 22 21 20 20 19 18 18 18 17 16 16 16
10 11 11 11 12 12 13 14 14 15 17 17 18 19 20 21 23 25 26 26 26 26 26 26 26 25 24 23 23 22 21 20 19 18 17 16 15 14 13 12 12 12 12 12
8 8 9 9 10 10 10 12 13 14 14 16 18 19 20 22 24 24 25 25 25 25 25 24 24 22 22 21 20 19 18 17 16 15 14 13 11 10 8 8 8 8 8 8
6 7 7 8 9 9 9 10 11 12 14 16 17 19 21 22 23 24 24 25 23 23 22 22 21 20 19 18 17 16 15 14 13 12 10 9 7 5 5 5 5 6 6 7
4 4 5 6 7 8 8 9 11 12 14 16 18 19 21 22 22 23 23 23 22 21 20 20 18 17 16 15 13 12 10 10 9 8 6 5 4 3 3 3 4 5 6 7
2 3 3 4 5 7 8 9 10 13 15 16 18 20 20 21 21 20 20 20 19 18 17 16 13 12 12 11 9 7 6 6 5 4 3 3 3 3 4 4 4 5 6 7
1 1 3 4 6 7 8 9 12 14 15 16 17 18 18 19 18 18 18 17 16 15 14 12 10 10 9 8 6 4 4 3 1 0 2 3 4 5 5 5 6 6 6 6
2 3 3 4 5 6 8 10 12 13 14 15 16 18 18 18 18 17 15 15 14 12 11 10 8 8 6 5 4 3 2 1 2 3 4 5 6 6 6 6 6 6 6 6
4 4 4 5 6 7 9 10 11 12 13 14 16 16 17 16 15 14 13 12 12 11 9 8 8 6 5 4 4 4 4 4 5 6 7 7 7 7 7 8 8 7 7 7
Wind_Direction
205 203 201 199 196 195 197 197 195 200 209 222 229 238 242 250 256 260 264 268 273 277 284 284 288 290 289 283 277 276 283 283 282 278 274 272 271 271 271 270 269 271 271 269
187 183 185 191 193 194 195 197 196 201 206 218 226 236 246 255 260 263 265 272 280 283 285 289 288 289 288 286 285 281 282 283 283 282 276 274 273 273 274 274 273 273 272 270
178 178 183 187 192 197 198 197 200 206 211 218 229 240 250 254 261 265 268 278 283 290 289 292 291 288 289 289 286 284 285 284 283 283 280 277 276 275 276 276 275 275 274 273
179 181 185 191 195 202 200 198 201 202 209 216 230 244 248 255 260 267 272 278 283 287 286 285 284 284 287 287 287 287 286 285 284 283 281 278 276 275 276 276 277 276 274 273
181 185 190 196 197 201 198 201 204 208 214 223 233 243 249 256 264 269 273 274 279 285 284 281 280 281 284 285 286 285 285 286 285 284 283 281 278 276 275 276 276 276 276 274
185 189 192 194 198 204 201 206 212 219 222 226 235 248 256 259 267 270 273 278 278 277 282 282 282 283 285 285 285 285 285 286 287 286 285 282 278 276 275 275 275 275 275 275
182 188 188 192 198 199 204 210 215 222 228 232 240 250 259 260 262 264 268 272 274 274 281 282 282 285 287 287 287 287 287 287 286 286 285 283 279 277 276 276 275 274 274 274
195 197 195 196 198 203 212 216 221 227 233 238 243 251 256 263 261 262 265 266 267 270 273 280 282 284 286 287 289 290 290 289 288 287 286 284 281 279 277 276 275 274 275 275
209 206 203 201 201 209 218 225 232 238 243 251 251 260 260 259 265 272 266 264 269 272 275 281 283 284 285 287 288 289 289 289 288 287 285 283 281 279 277 276 275 275 276 274
211 212 210 207 207 214 221 229 237 241 248 255 255 265 273 272 275 280 276 268 269 275 282 284 283 284 286 287 288 289 289 289 288 287 285 282 280 278 276 275 275 275 274 273
221 218 214 212 213 215 222 230 238 243 250 260 265 270 281 288 292 292 281 278 275 280 283 285 289 290 289 288 289 290 290 289 288 286 284 281 279 276 276 275 275 275 273 272
226 222 220 217 217 220 227 235 241 247 255 264 267 276 286 291 295 299 290 287 286 287 290 291 292 292 291 290 290 290 289 288 287 285 282 280 278 276 276 275 274 273 273 271
233 230 223 219 221 225 231 238 245 254 262 269 274 283 290 297 303 300 299 299 294 294 296 297 297 295 293 291 291 290 289 289 289 286 283 281 279 277 275 274 273 272 272 271
235 231 227 227 228 230 234 239 246 254 264 272 276 285 293 298 299 299 300 303 305 303 301 300 300 298 295 293 292 291 290 290 290 288 284 281 278 276 274 272 270 270 270 269
233 231 233 234 231 234 238 242 250 258 266 277 283 288 292 296 298 300 302 303 306 304 301 300 300 299 297 294 293 292 291 290 289 287 285 283 279 275 273 269 267 268 266 265
233 233 233 232 232 237 242 247 254 263 271 280 287 292 293 296 302 304 304 305 305 303 301 300 299 297 296 295 293 292 291 290 288 286 283 283 279 274 271 269 267 266 264 261
232 234 233 232 233 234 242 249 255 263 272 280 286 292 296 298 302 304 305 303 302 301 301 300 299 298 297 295 294 292 291 290 289 286 284 282 279 273 271 269 265 262 260 258
228 228 230 235 240 241 247 255 263 268 274 281 288 292 298 300 302 303 303 302 302 302 302 300 300 299 297 295 293 291 289 289 288 285 284 282 279 275 271 266 262 258 253 249
228 226 229 238 244 245 254 263 271 275 279 287 295 296 299 302 304 305 304 303 303 302 302 302 302 300 298 296 294 291 288 288 287 284 283 283 282 276 269 261 255 249 243 238
225 229 231 242 246 254 264 269 276 280 286 297 300 301 303 308 308 307 306 304 303 303 303 303 302 301 300 299 298 295 290 287 286 284 281 280 280 274 264 254 248 235 227 223
229 233 239 250 254 258 273 281 282 289 298 304 307 309 311 312 313 311 310 309 307 306 306 305 304 302 302 304 302 298 292 288 287 285 278 274 271 264 252 250 239 220 214 210
231 236 243 261 263 267 280 287 293 302 307 310 311 312 313 314 314 314 314 313 313 312 310 309 307 305 306 306 304 299 294 292 289 284 274 263 249 241 220 212 199 186 185 189
235 247 258 274 278 277 283 291 300 307 313 315 313 315 316 317 317 318 320 319 320 320 319 317 314 313 314 314 308 304 303 299 292 280 257 238 213 193 173 166 161 159 161 167
46 297 290 294 302 300 303 306 310 314 316 318 319 323 323 323 323 324 326 327 326 327 329 329 327 326 327 325 319 314 314 316 317 175 152 143 151 153 152 152 152 151 147 151
14 346 344 335 328 324 322 322 321 324 326 326 328 329 327 327 328 330 333 336 336 336 341 344 343 343 344 342 347 357 7 35 93 115 129 128 129 133 137 137 137 135 132 133
31 15 356 342 336 334 333 333 332 333 334 334 334 334 333 333 336 339 342 346 350 352 356 359 360 5 12 26 41 52 60 86 102 112 121 122 119 123 127 126 128 128 126 128
Height
5810 5813 5816 5818 5821 5823 5825 5826 5828 5831 5833 5835 5837 5838 5839 5840 5841 5842 5842 5843 5843 5842 5840 5839 5841 5841 5840 5840 5839 5839 5841 5842 5842 5841 5841 5841 5842 5841 5841 5841 5841 5841 5841 5841
5809 5811 5814 5816 5818 5820 5822 5824 5826 5828 5829 5831 5833 5835 5836 5836 5837 5838 5838 5839 5840 5839 5837 5836 5837 5837 5837 5837 5836 5836 5838 5838 5838 5838 5837 5837 5837 5836 5835 5835 5835 5834 5834 5835
5807 5810 5811 5813 5815 5818 5820 5822 5823 5825 5827 5828 5830 5831 5832 5833 5833 5834 5835 5836 5836 5836 5836 5834 5834 5833 5833 5833 5833 5833 5833 5833 5833 5833 5832 5832 5831 5831 5830 5829 5829 5828 5828 5828
5805 5807 5809 5811 5813 5816 5818 5819 5820 5822 5824 5826 5828 5828 5829 5829 5829 5830 5831 5832 5832 5832 5832 5832 5831 5830 5829 5829 5829 5828 5828 5828 5827 5827 5826 5826 5825 5824 5824 5823 5822 5822 5821 5821
5803 5805 5807 5809 5811 5813 5815 5817 5818 5819 5821 5824 5825 5826 5827 5825 5826 5827 5827 5827 5827 5827 5828 5828 5827 5827 5826 5825 5824 5824 5823 5822 5822 5821 5820 5819 5819 5818 5817 5817 5816 5815 5815 5814
5802 5804 5805 5808 5810 5811 5813 5815 5816 5817 5819 5821 5822 5823 5823 5823 5822 5823 5823 5823 5823 5823 5823 5823 5823 5822 5821 5820 5819 5818 5818 5817 5815 5814 5814 5813 5812 5811 5811 5810 5809 5808 5808 5807
5801 5803 5804 5806 5807 5809 5811 5813 5814 5815 5816 5818 5820 5820 5820 5819 5819 5819 5819 5819 5819 5819 5819 5818 5818 5817 5816 5815 5814 5813 5811 5810 5809 5808 5807 5806 5804 5804 5803 5802 5802 5801 5800 5800
5800 5802 5803 5804 5806 5807 5809 5810 5812 5813 5814 5815 5816 5816 5817 5815 5815 5815 5815 5815 5815 5814 5814 5813 5813 5811 5810 5809 5808 5806 5805 5804 5802 5801 5800 5798 5797 5796 5795 5794 5794 5793 5793 5792
5798 5800 5802 5803 5804 5806 5807 5808 5809 5811 5812 5812 5812 5813 5813 5811 5811 5811 5810 5810 5810 5810 5809 5808 5807 5806 5804 5803 5802 5800 5798 5797 5795 5794 5792 5790 5789 5788 5787 5786 5786 5785 5785 5784
5796 5798 5800 5801 5802 5804 5805 5806 5807 5808 5808 5808 5809 5809 5809 5808 5808 5807 5806 5805 5805 5805 5804 5803 5802 5800 5798 5797 5795 5793 5791 5789 5787 5786 5784 5783 5781 5780 5779 5779 5778 5777 5777 5776
5794 5796 5798 5799 5800 5801 5803 5804 5804 5805 5805 5805 5805 5808 5806 5804 5803 5802 5802 5801 5801 5801 5799 5798 5796 5794 5791 5789 5787 5785 5783 5781 5779 5777 5776 5775 5773 5772 5771 5770 5770 5769 5769 5768
5791 5793 5795 5797 5798 5799 5800 5800 5801 5802 5802 5802 5802 5805 5802 5801 5800 5798 5797 5796 5795 5794 5793 5790 5788 5786 5784 5781 5779 5777 5774 5772 5770 5768 5767 5765 5764 5763 5762 5762 5761 5761 5760 5760
5788 5790 5792 5794 5797 5797 5797 5797 5798 5799 5799 5798 5798 5801 5798 5796 5795 5793 5792 5791 5789 5787 5785 5783 5780 5778 5775 5772 5770 5768 5766 5763 5761 5759 5757 5756 5755 5754 5753 5753 5752 5752 5752 5752
5785 5787 5790 5792 5793 5793 5794 5794 5795 5795 5795 5795 5795 5795 5794 5792 5790 5788 5787 5786 5783 5781 5778 5776 5773 5770 5767 5764 5762 5759 5757 5754 5752 5750 5748 5746 5745 5745 5744 5744 5743 5744 5744 5744
5782 5784 5786 5788 5789 5790 5791 5791 5791 5791 5791 5791 5791 5790 5789 5788 5786 5784 5782 5780 5777 5774 5771 5769 5766 5763 5759 5756 5754 5751 5748 5746 5743 5741 5740 5738 5737 5736 5735 5735 5735 5735 5736 5737
5779 5781 5783 5785 5787 5787 5788 5788 5788 5788 5788 5787 5787 5786 5784 5782 5780 5778 5776 5773 5770 5767 5765 5762 5758 5755 5752 5749 5746 5743 5740 5738 5735 5733 5732 5730 5729 5728 5728 5728 5728 5729 5729 5730
5775 5778 5780 5782 5784 5784 5785 5785 5785 5785 5784 5784 5783 5782 5780 5777 5775 5772 5769 5766 5763 5761 5757 5754 5750 5747 5743 5740 5737 5735 5732 5730 5728 5727 5725 5723 5722 5722 5721 5721 5722 5722 5723 5724
5773 5775 5777 5779 5781 5782 5784 5782 5782 5782 5781 5781 5779 5777 5775 5772 5770 5766 5763 5760 5756 5753 5749 5745 5742 5738 5735 5732 5729 5727 5725 5724 5722 5720 5718 5717 5716 5716 5715 5715 5716 5717 5718 5719
5771 5773 5775 5776 5777 5778 5780 5779 5778 5778 5778 5776 5774 5772 5769 5767 5763 5760 5756 5752 5749 5745 5741 5738 5734 5731 5728 5725 5723 5720 5719 5717 5715 5714 5713 5712 5711 5711 5710 5710 5711 5712 5714 5715
5769 5771 5773 5774 5775 5776 5778 5777 5775 5776 5774 5772 5769 5767 5764 5761 5758 5754 5749 5745 5742 5738 5734 5731 5727 5724 5721 5719 5716 5714 5713 5711 5710 5709 5708 5708 5708 5707 5707 5707 5708 5709 5711 5712
5767 5769 5770 5772 5772 5773 5774 5773 5773 5773 5772 5768 5765 5761 5758 5755 5752 5747 5743 5739 5735 5731 5728 5724 5721 5718 5716 5714 5711 5710 5708 5707 5706 5705 5705 5705 5705 5705 5705 5705 5706 5707 5709 5710
5767 5768 5769 5770 5770 5773 5772 5771 5770 5769 5766 5763 5760 5757 5753 5749 5745 5741 5737 5732 5728 5725 5722 5719 5716 5713 5711 5709 5707 5706 5705 5704 5703 5702 5702 5702 5703 5703 5704 5704 5705 5706 5708 5709
5766 5767 5768 5769 5770 5769 5768 5767 5767 5765 5762 5759 5756 5752 5748 5744 5740 5736 5732 5728 5724 5720 5717 5714 5712 5709 5708 5706 5704 5703 5702 5702 5701 5701 5701 5701 5702 5702 5703 5704 5705 5706 5708 5709
5765 5766 5767 5767 5767 5766 5766 5764 5763 5761 5758 5755 5751 5747 5744 5740 5736 5732 5728 5724 5720 5717 5714 5711 5709 5707 5705 5704 5702 5702 5701 5701 5700 5700 5701 5701 5702 5703 5704 5705 5706 5707 5708 5709
5765 5765 5765 5765 5765 5764 5763 5761 5760 5757 5754 5751 5747 5744 5740 5736 5732 5728 5725 5721 5717 5715 5712 5710 5708 5706 5704 5703 5702 5701 5701 5700 5700 5701 5701 5702 5702 5703 5705 5705 5706 5708 5709 5710
5765 5765 5765 5764 5763 5762 5761 5759 5757 5754 5751 5748 5744 5740 5736 5732 5729 5726 5722 5719 5716 5714 5711 5709 5707 5706 5704 5703 5702 5702 5701 5701 5701 5701 5702 5703 5704 5705 5706 5707 5708 5709 5710 5711